Weather History for Hattiesburg, MS

Change the Weather History Date:

Sunday, August 25, 2013

  Actual Average Record
Temperature  
Mean Temperature 79 °F 81 °F  
Max Temperature 87 °F 92 °F 100 °F (2000)
Min Temperature 70 °F 70 °F 60 °F (2009)
Degree Days  
Heating Degree Days 0 0  
Month to date heating degree days 0 0  
Since 1 June heating degree days 0 0  
Since 1 July heating degree days 0 0  
Cooling Degree Days 14 16  
Month to date cooling degree days 416 418  
Year to date cooling degree days 1696 1778  
Since 1 June cooling degree days 1354 1363  
Growing Degree Days 28 (Base 50)    
Moisture  
Dew Point 71 °F    
Average Humidity 81    
Maximum Humidity 100    
Minimum Humidity 61    
Precipitation  
Precipitation 0.00 in 0.17 in 1.38 in (1985)
Month to date precipitation 4.03 3.82  
Year to date precipitation 52.17 41.25  
Sea Level Pressure  
Sea Level Pressure 30.18 in    
Wind  
Wind Speed 4 mph (East)    
Max Wind Speed 15 mph    
Max Gust Speed 23 mph    
Visibility 10 miles    
Events      
T = Trace of Precipitation, MM = Missing Value Source: NWS Daily Summary

Daily Weather History Graph

Daily Weather History Graph

Search for Another Location

Airport:

Trip Planner

Search our weather history database for the weather conditions in past years. The results will help you decide how hot, cold, wet, or windy it might be!

Date:

Astronomy

Aug. 25, 2013 Rise Set
Actual Time 6:28 AM CDT 7:28 PM CDT
Civil Twilight 6:03 AM CDT 7:53 PM CDT
Nautical Twilight 5:34 AM CDT 8:23 PM CDT
Astronomical Twilight 5:03 AM CDT 8:53 PM CDT
Moon 10:24 PM CDT 11:07 AM CDT
Length of Visible Light 13h 49m
Length of Day
12h 59m
Waning Gibbous, 75% of the Moon is Illuminated
Aug 25
Waning Gibbous
Aug 28
Last Quarter
Sep 5
New
Sep 12
First Quarter
Sep 19
Full

Hourly Weather History & Observations

Time (CDT) Temp. Heat Index Dew Point Humidity Pressure Visibility Wind Dir Wind Speed Gust Speed Precip Events Conditions
12:53 AM 73.0 °F - 71.1 °F 93% 30.13 in 10.0 mi Calm Calm - N/A   Clear
1:53 AM 72.0 °F - 70.0 °F 93% 30.14 in 10.0 mi Calm Calm - N/A   Clear
2:53 AM 72.0 °F - 70.0 °F 93% 30.14 in 10.0 mi Calm Calm - N/A   Clear
3:53 AM 71.1 °F - 69.1 °F 93% 30.13 in 10.0 mi Calm Calm - N/A   Clear
4:53 AM 71.1 °F - 69.1 °F 93% 30.13 in 10.0 mi Calm Calm - N/A   Clear
5:05 AM 71.6 °F - 69.8 °F 94% 30.14 in 10.0 mi Calm Calm - N/A   Partly Cloudy
5:53 AM 70.0 °F - 68.0 °F 93% 30.14 in 3.0 mi Calm Calm - N/A   Clear
6:24 AM 69.8 °F - 69.8 °F 100% 30.17 in 10.0 mi Calm Calm - N/A   Scattered Clouds
6:53 AM 70.0 °F - 69.1 °F 97% 30.17 in 10.0 mi Calm Calm - N/A   Partly Cloudy
7:53 AM 75.0 °F - 71.1 °F 87% 30.18 in 10.0 mi East 4.6 mph - 0.01 in   Clear
8:03 AM 75.2 °F - 71.6 °F 89% 30.19 in 10.0 mi East 5.8 mph - N/A   Partly Cloudy
8:22 AM 75.2 °F - 71.6 °F 89% 30.20 in 10.0 mi ESE 5.8 mph - N/A   Mostly Cloudy
8:53 AM 75.9 °F - 72.0 °F 87% 30.20 in 10.0 mi East 6.9 mph - N/A   Overcast
9:27 AM 78.8 °F - 73.4 °F 83% 30.20 in 10.0 mi ESE 8.1 mph - N/A   Overcast
9:53 AM 80.1 °F 83.8 °F 72.0 °F 76% 30.19 in 10.0 mi Variable 6.9 mph - N/A   Mostly Cloudy
10:05 AM 80.6 °F 84.6 °F 71.6 °F 74% 30.20 in 10.0 mi East 9.2 mph - N/A   Scattered Clouds
10:16 AM 80.6 °F 84.6 °F 71.6 °F 74% 30.21 in 10.0 mi ENE 9.2 mph - N/A   Mostly Cloudy
10:53 AM 81.0 °F 85.2 °F 72.0 °F 74% 30.21 in 10.0 mi East 5.8 mph 17.3 mph N/A   Overcast
11:29 AM 80.6 °F 84.6 °F 71.6 °F 74% 30.22 in 10.0 mi ENE 9.2 mph - N/A   Scattered Clouds
11:53 AM 82.9 °F 88.0 °F 72.0 °F 69% 30.21 in 10.0 mi ENE 10.4 mph - N/A   Mostly Cloudy
12:41 PM 84.2 °F 90.9 °F 73.4 °F 70% 30.19 in 10.0 mi ENE 8.1 mph - N/A   Scattered Clouds
12:53 PM 84.9 °F 90.7 °F 72.0 °F 65% 30.19 in 10.0 mi ENE 8.1 mph - N/A   Scattered Clouds
1:26 PM 84.2 °F 89.6 °F 71.6 °F 66% 30.19 in 10.0 mi ENE 9.2 mph - N/A   Mostly Cloudy
1:41 PM 84.2 °F 90.9 °F 73.4 °F 70% 30.19 in 10.0 mi East 8.1 mph - N/A   Mostly Cloudy
1:53 PM 86.0 °F 92.2 °F 72.0 °F 63% 30.18 in 10.0 mi East 10.4 mph - N/A   Mostly Cloudy
2:53 PM 86.0 °F 92.2 °F 72.0 °F 63% 30.16 in 10.0 mi East 8.1 mph - N/A   Scattered Clouds
3:53 PM 86.0 °F 92.2 °F 72.0 °F 63% 30.14 in 10.0 mi ESE 9.2 mph - N/A   Partly Cloudy
4:53 PM 86.0 °F 92.2 °F 72.0 °F 63% 30.14 in 10.0 mi ESE 6.9 mph - N/A   Clear
5:53 PM 84.0 °F 90.2 °F 73.0 °F 69% 30.14 in 10.0 mi East 5.8 mph - N/A   Clear
6:53 PM 82.9 °F 88.8 °F 73.0 °F 72% 30.15 in 10.0 mi East 3.5 mph - N/A   Clear
7:53 PM 78.1 °F - 72.0 °F 81% 30.18 in 10.0 mi South 6.9 mph - N/A   Mostly Cloudy
8:53 PM 75.9 °F - 72.0 °F 87% 30.19 in 10.0 mi Calm Calm - N/A   Clear
9:53 PM 75.9 °F - 72.0 °F 87% 30.20 in 10.0 mi Calm Calm - N/A   Clear
10:53 PM 73.9 °F - 71.1 °F 91% 30.21 in 10.0 mi Calm Calm - N/A   Clear
11:53 PM 73.9 °F - 72.0 °F 93% 30.21 in 10.0 mi Calm Calm - N/A   Partly Cloudy